TimeMST,TemperatureF,Dew PointF,Humidity,Sea Level PressureIn,VisibilityMPH,Wind Direction,Wind SpeedMPH,Gust SpeedMPH,PrecipitationIn,Events,Conditions,WindDirDegrees,DateUTC
12:53 AM,12.9,6.1,74,30.02,10.0,SSE,13.8,-,N/A,,Overcast,160,2012-12-31 07:53:00
1:53 AM,12.9,6.1,74,30.01,10.0,SSE,10.4,-,N/A,,Overcast,160,2012-12-31 08:53:00
2:53 AM,12.0,6.1,77,30.01,10.0,SE,13.8,-,N/A,,Overcast,140,2012-12-31 09:53:00
3:53 AM,12.0,6.1,77,30.00,10.0,SSE,8.1,-,0.00,,Overcast,160,2012-12-31 10:53:00
4:53 AM,9.0,3.9,80,30.00,10.0,South,8.1,-,N/A,,Scattered Clouds,170,2012-12-31 11:53:00
5:53 AM,3.0,-0.9,84,30.05,10.0,South,9.2,-,N/A,,Partly Cloudy,170,2012-12-31 12:53:00
6:53 AM,3.9,-0.9,80,30.07,10.0,SSE,11.5,-,N/A,,Partly Cloudy,160,2012-12-31 13:53:00
7:53 AM,8.1,3.9,83,30.06,10.0,SSE,10.4,-,N/A,,Overcast,160,2012-12-31 14:53:00
8:53 AM,8.1,3.9,83,30.08,10.0,South,9.2,-,N/A,,Overcast,190,2012-12-31 15:53:00
9:53 AM,12.0,8.1,84,30.09,10.0,South,8.1,-,N/A,,Overcast,170,2012-12-31 16:53:00
10:53 AM,12.0,9.0,88,30.07,3.0,South,6.9,-,N/A,,Overcast,180,2012-12-31 17:53:00
11:00 AM,10.4,8.6,92,29.85,7.0,West,3.5,-,N/A,,Overcast,270,2012-12-31 18:00:00
11:53 AM,10.0,5.0,80,30.06,10.0,NNW,4.6,-,N/A,,Mostly Cloudy,330,2012-12-31 18:53:00
12:53 PM,12.0,7.0,80,30.02,4.0,NE,3.5,-,0.00,Snow,Light Snow,40,2012-12-31 19:53:00
1:17 PM,12.2,6.8,79,29.83,1.8,Calm,Calm,-,0.00,Snow,Light Snow,0,2012-12-31 20:17:00
1:21 PM,12.2,6.8,79,29.83,2.0,Calm,Calm,-,0.00,Snow,Light Snow,0,2012-12-31 20:21:00
1:36 PM,12.2,6.8,79,29.83,3.0,North,4.6,-,0.00,Snow,Light Snow,350,2012-12-31 20:36:00
1:53 PM,12.0,7.0,80,30.02,5.0,North,4.6,-,0.00,Snow,Light Snow,350,2012-12-31 20:53:00
2:14 PM,10.4,6.8,85,29.83,10.0,NNW,4.6,-,0.00,,Scattered Clouds,330,2012-12-31 21:14:00
2:53 PM,10.0,5.0,80,30.05,10.0,North,4.6,-,0.00,,Clear,360,2012-12-31 21:53:00
3:53 PM,7.0,3.0,84,30.08,10.0,Calm,Calm,-,N/A,,Clear,0,2012-12-31 22:53:00
4:43 PM,5.0,3.2,92,29.86,10.0,Calm,Calm,-,N/A,,Mostly Cloudy,0,2012-12-31 23:43:00
4:53 PM,6.1,3.9,91,30.11,10.0,Calm,Calm,-,N/A,,Overcast,0,2012-12-31 23:53:00
5:28 PM,1.4,-0.4,92,29.88,10.0,Calm,Calm,-,N/A,,Scattered Clouds,0,2013-01-01 00:28:00
5:53 PM,-0.0,-4.0,83,30.19,10.0,Calm,Calm,-,N/A,,Clear,0,2013-01-01 00:53:00
6:53 PM,1.9,-2.0,83,30.20,6.0,Calm,Calm,-,N/A,,Clear,0,2013-01-01 01:53:00
7:15 PM,-0.4,-4.0,85,29.90,1.0,Calm,Calm,-,N/A,,Mist,0,2013-01-01 02:15:00
7:17 PM,-0.4,-4.0,85,29.90,0.5,Calm,Calm,-,N/A,Fog,Light Freezing Fog,0,2013-01-01 02:17:00
7:38 PM,-2.2,-4.0,92,29.90,0.2,SSW,3.5,-,N/A,Fog,Light Freezing Fog,200,2013-01-01 02:38:00
7:46 PM,-2.2,-2.2,100,29.90,0.2,South,3.5,-,N/A,Fog,Light Freezing Fog,190,2013-01-01 02:46:00
7:53 PM,-0.9,-2.9,91,30.19,0.2,South,4.6,-,N/A,Fog,Light Freezing Fog,180,2013-01-01 02:53:00
8:31 PM,-5.8,-9.4,84,29.90,1.0,SSW,5.8,-,N/A,,Mist,200,2013-01-01 03:31:00
8:53 PM,-7.1,-9.0,91,30.22,1.0,SW,3.5,-,N/A,,Mist,220,2013-01-01 03:53:00
8:57 PM,-5.8,-9.4,84,29.90,0.5,SSW,3.5,-,N/A,Fog,Light Freezing Fog,200,2013-01-01 03:57:00
9:24 PM,-5.8,-7.6,92,29.90,0.8,SSE,6.9,-,N/A,,Mist,160,2013-01-01 04:24:00
9:43 PM,-2.2,-5.8,85,29.90,1.0,SE,8.1,-,N/A,,Mist,140,2013-01-01 04:43:00
9:53 PM,-5.1,-6.0,96,30.19,1.2,SE,8.1,-,N/A,,Partly Cloudy,140,2013-01-01 04:53:00
10:00 PM,-4.0,-5.8,92,29.90,0.8,SE,6.9,-,N/A,,Mist,130,2013-01-01 05:00:00
10:06 PM,-2.2,-5.8,85,29.91,1.2,ESE,6.9,-,N/A,,Partly Cloudy,120,2013-01-01 05:06:00
10:12 PM,-2.2,-5.8,85,29.91,3.0,ESE,6.9,-,N/A,,Clear,120,2013-01-01 05:12:00
10:53 PM,-2.9,-6.0,87,30.19,10.0,ESE,9.2,-,N/A,,Clear,120,2013-01-01 05:53:00
11:53 PM,-11.9,-15.0,86,30.27,8.0,WSW,3.5,-,N/A,,Clear,250,2013-01-01 06:53:00